Content
SEND FEEDBACK

Daily
Averages
Monthly
Summary
Canada

PLUM COULEE, MANITOBA


Home > North America > Canada > Manitoba
Elevation: 870 feet     Latitude: 49 03N     Longitude: 97 48W

WEATHER
 
SELECT A DAY
Number of Records: 112,249;   Date Range: 11/18/10 - 7/12/14
 
SHARE

PRINT THIS DATA

[ ← Previous Day ]
WEATHER ALMANAC - FEBRUARY 13, 2013
[ Next Day → ]
[ °C ]   °F
Weather ElementAverageHighLow
Temperature22.8 °F26.6 °F (12:35 am)17.6 °F (7:55 am)
Dewpoint21.8 °F26.6 °F (2:15 pm)15.8 °F (11:35 pm)
Humidity96.3 %100 % (2:35 am)80 % (11:15 am)
Barometer29.68 in29.83 in (11:55 pm)29.61 in (10:15 am)
Wind Speed5.9 mph15 mph (10:35 pm)
Wind Gust17.3 mph (12:55 am)
Weather ElementAverage
Visibility10 mi
Wind DirectionSSW (192.1 °)

Weather ElementTotal
Precipitation---
Heating Degree Days42.9 (Base 65)
Averaged from 71 records on February 13, 2013
WEATHER CONDITIONS BREAKOUT
WIND DIRECTION BREAKOUT
WEATHER BY HOUR - FEBRUARY 13, 2013
[ °C ]   °F
Local TimeTemperatureDewpointHumidityBarometerVisibilityWind DirectionWind SpeedGust SpeedPrecipitationEventsConditions
12:35 AM26.6 °F24.8 °F93 %29.65 in10.0 miWest (280°)13.8 mphClear
12:55 AM26.6 °F24.8 °F93 %29.66 in10.0 miWNW (290°)10.4 mph17.3 mphClear
1:15 AM26.6 °F24.8 °F93 %29.66 in10.0 miWNW (290°)8.1 mphClear
1:35 AM26.6 °F24.8 °F93 %29.66 in10.0 miWest (280°)9.2 mphClear
1:55 AM26.6 °F24.8 °F93 %29.66 in10.0 miWNW (290°)10.4 mphClear
2:15 AM24.8 °F23.0 °F93 %29.66 in10.0 miWNW (300°)6.9 mphClear
2:35 AM24.8 °F24.8 °F100 %29.66 in10.0 miWNW (290°)8.1 mphClear
2:55 AM24.8 °F23.0 °F93 %29.66 in10.0 miWNW (290°)6.9 mphClear
3:15 AM23.0 °F23.0 °F100 %29.65 in10.0 miWest (280°)4.6 mphPartly Cloudy
3:35 AM23.0 °F23.0 °F100 %29.65 in10.0 miWest (270°)3.5 mphScattered Clouds
3:55 AM19.4 °F19.4 °F100 %29.64 in10.0 miWest (270°)3.5 mphScattered Clouds
4:15 AM19.4 °F19.4 °F100 %29.64 in10.0 miWest (260°)4.6 mphMostly Cloudy
4:35 AM21.2 °F21.2 °F100 %29.64 inWest (260°)4.6 mph
4:55 AM21.2 °F21.2 °F100 %29.64 inWest (270°)4.6 mph
5:15 AM21.2 °F21.2 °F100 %29.64 in10.0 miWest (280°)4.6 mphMostly Cloudy
5:35 AM21.2 °F21.2 °F100 %29.64 in10.0 miWSW (250°)4.6 mphMostly Cloudy
5:55 AM23.0 °F23.0 °F100 %29.64 inWest (260°)5.8 mph
6:15 AM23.0 °F23.0 °F100 %29.63 in10.0 miWSW (250°)5.8 mphMostly Cloudy
6:35 AM23.0 °F21.2 °F93 %29.62 inCalmOvercast
6:55 AM21.2 °F21.2 °F100 %29.63 inCalm
7:15 AM19.4 °F19.4 °F100 %29.62 in10.0 miCalmMostly Cloudy
7:35 AM19.4 °F19.4 °F100 %29.62 in10.0 miCalmOvercast
7:55 AM17.6 °F17.6 °F100 %29.62 in10.0 miCalmOvercast
8:15 AM17.6 °F17.6 °F100 %29.62 in10.0 miCalmMostly Cloudy
8:35 AM17.6 °F17.6 °F100 %29.63 in10.0 miCalmClear
8:55 AM19.4 °F19.4 °F100 %29.63 in9.0 miCalmClear
9:15 AM19.4 °F19.4 °F100 %29.62 in10.0 miCalmClear
9:35 AM19.4 °F19.4 °F100 %29.62 in10.0 miCalmClear
9:55 AM19.4 °F19.4 °F100 %29.62 in10.0 miCalmClear
10:15 AM23.0 °F19.4 °F86 %29.61 in10.0 miCalmClear
10:35 AM23.0 °F19.4 °F86 %29.62 in10.0 miCalmClear
10:55 AM23.0 °F19.4 °F86 %29.62 in10.0 miCalmClear
11:15 AM26.6 °F21.2 °F80 %29.62 in10.0 miNNW (340°)3.5 mphMostly Cloudy
11:35 AM26.6 °F23.0 °F86 %29.62 in10.0 miNNE (20°)4.6 mphScattered Clouds
11:55 AM26.6 °F23.0 °F86 %29.62 in10.0 miNNE (20°)5.8 mphScattered Clouds
12:15 PM26.6 °F23.0 °F86 %29.63 in10.0 miNorth (10°)8.1 mphScattered Clouds
12:35 PM26.6 °F23.0 °F86 %29.63 in10.0 miNorth (360°)5.8 mphMostly Cloudy
12:55 PM26.6 °F23.0 °F86 %29.63 in10.0 miNorth (360°)6.9 mphOvercast
1:15 PM26.6 °F24.8 °F93 %29.63 in10.0 miNorth (10°)5.8 mphOvercast
1:35 PM26.6 °F24.8 °F93 %29.63 in10.0 miNorth (360°)4.6 mphOvercast
1:55 PM26.6 °F24.8 °F93 %29.63 in10.0 miNorth (360°)5.8 mphOvercast
2:15 PM26.6 °F26.6 °F100 %29.64 in10.0 miNorth (10°)9.2 mphMostly Cloudy
2:35 PM24.8 °F24.8 °F100 %29.64 in10.0 miNNE (20°)10.4 mphClear
2:55 PM24.8 °F24.8 °F100 %29.65 in10.0 miNorth (10°)8.1 mphScattered Clouds
3:15 PM24.8 °F24.8 °F100 %29.65 in10.0 miNorth (360°)8.1 mphSnowLight Snow
3:35 PM24.8 °F24.8 °F100 %29.66 in10.0 miNorth (360°)6.9 mphMostly Cloudy
3:55 PM24.8 °F24.8 °F100 %29.66 in10.0 miNorth (360°)9.2 mphMostly Cloudy
4:15 PM24.8 °F24.8 °F100 %29.67 in10.0 miNorth (360°)8.1 mphPartly Cloudy
4:35 PM24.8 °F24.8 °F100 %29.68 in10.0 miNorth (360°)8.1 mphPartly Cloudy
4:55 PM24.8 °F24.8 °F100 %29.69 in10.0 miNorth (350°)6.9 mphMostly Cloudy
5:15 PM24.8 °F24.8 °F100 %29.69 in10.0 miNorth (350°)5.8 mphMostly Cloudy
5:35 PM24.8 °F24.8 °F100 %29.70 in10.0 miNNW (340°)4.6 mphMostly Cloudy
5:55 PM21.2 °F21.2 °F100 %29.71 in10.0 miNW (320°)4.6 mphPartly Cloudy
6:15 PM19.4 °F19.4 °F100 %29.71 in10.0 miWNW (300°)4.6 mphMostly Cloudy
6:35 PM17.6 °F17.6 °F100 %29.73 in10.0 miNNW (330°)4.6 mphOvercast
6:55 PM17.6 °F17.6 °F100 %29.74 in10.0 miWNW (300°)4.6 mphOvercast
7:15 PM19.4 °F19.4 °F100 %29.74 in10.0 miWNW (300°)5.8 mphOvercast
7:35 PM21.2 °F21.2 °F100 %29.75 in10.0 miNW (310°)4.6 mphOvercast
7:55 PM21.2 °F21.2 °F100 %29.75 in10.0 miNW (310°)5.8 mphOvercast
8:15 PM21.2 °F21.2 °F100 %29.75 in10.0 miNW (320°)6.9 mphOvercast
8:35 PM21.2 °F21.2 °F100 %29.76 in10.0 miNW (310°)5.8 mphOvercast
8:55 PM21.2 °F21.2 °F100 %29.76 in10.0 miNW (320°)6.9 mphOvercast
9:15 PM19.4 °F19.4 °F100 %29.77 in10.0 miNW (320°)5.8 mphOvercast
9:35 PM24.8 °F24.8 °F100 %29.78 in10.0 miNorth (360°)13.8 mphOvercast
9:55 PM24.8 °F24.8 °F100 %29.79 in10.0 miNNE (20°)11.5 mphSnowLight Snow
10:15 PM23.0 °F23.0 °F100 %29.80 in10.0 miNNE (30°)10.4 mphSnowLight Snow
10:35 PM23.0 °F21.2 °F93 %29.80 in10.0 miNNE (20°)15.0 mphOvercast
10:55 PM21.2 °F19.4 °F93 %29.81 in10.0 miNNE (20°)13.8 mphOvercast
11:15 PM21.2 °F17.6 °F86 %29.82 in10.0 miNNE (20°)12.7 mphOvercast
11:35 PM19.4 °F15.8 °F86 %29.82 in10.0 miNNE (30°)10.4 mphOvercast
11:55 PM19.4 °F15.8 °F86 %29.83 in10.0 miNNE (20°)11.5 mphOvercast
Hourly data recorded from K96D, located miles away from Plum Coulee, Manitoba







STORIES FROM OUR PARTNERS